EW5231 Weather Reports


time (UTC)temp
F
wind
direction
speed
knots
gust
knots
rain 1hr
in
rain 24hr
in
rain mn
in
humidity
%
barometer
mb
20260507161524 48 271 5.2 14.8 0.00 0.64 0.01 46 1007.2
20260507160019 47 249 5.2 13.0 0.00 0.70 0.01 46 1007.4
20260507154514 47 267 7.0 14.8 0.00 0.70 0.01 51 1007.3
20260507153013 46 315 7.0 17.4 0.00 0.70 0.01 48 1007.4
20260507151512 46 198 7.8 13.9 0.00 0.70 0.01 51 1007.5
20260507150012 45 317 8.7 14.8 0.00 0.73 0.01 53 1007.5
20260507144509 45 300 9.6 13.9 0.00 0.73 0.01 55 1007.2
20260507143004 44 308 7.0 16.5 0.00 0.73 0.01 62 1007.3
20260507141502 44 294 6.1 13.0 0.00 0.73 0.01 60 1007.5
20260507140058 43 327 4.3 9.6 0.00 0.78 0.01 65 1007.5
20260507134600 43 299 4.3 9.6 0.00 0.78 0.01 72 1007.5
20260507133052 42 301 4.3 9.6 0.00 0.78 0.01 82 1007.5
20260507131546 41 311 4.3 7.8 0.00 0.78 0.01 86 1007.4
20260507130057 39 271 3.5 8.7 0.00 0.82 0.01 91 1007.5
20260507124554 39 294 6.1 14.8 0.00 0.82 0.01 89 1007.6
20260507123012 40 293 3.5 7.8 0.00 0.82 0.01 92 1007.3
20260507121508 40 281 1.7 9.6 0.00 0.82 0.01 94 1007.1
20260507120005 40 277 2.6 7.0 0.00 0.82 0.01 94 1007.2
20260507114503 40 298 1.7 3.5 0.00 0.82 0.01 97 1006.9
20260507113100 39 257 0.0 1.7 0.00 0.82 0.01 97 1006.7
20260507111558 38 176 0.0 0.9 0.00 0.82 0.01 97 1006.8
20260507110055 38 178 0.0 2.6 0.00 0.82 0.01 97 1006.8
20260507104555 37 138 0.0 0.0 0.00 0.82 0.01 97 1006.9
20260507103052 37 138 0.0 1.7 0.00 0.82 0.01 97 1006.9
20260507101559 36 138 0.9 1.7 0.00 0.82 0.01 97 1006.8
20260507100023 36 138 0.0 1.7 0.00 0.83 0.01 96 1006.7
20260507094519 36 315 0.9 1.7 0.00 0.83 0.01 96 1006.6
20260507093014 36 315 0.9 1.7 0.00 0.83 0.01 96 1006.8
20260507091513 37 257 0.0 0.0 0.00 0.83 0.01 97 1006.8
20260507090011 37 257 0.0 1.7 0.00 0.83 0.01 97 1006.7
20260507084511 37 257 0.9 1.7 0.00 0.83 0.01 97 1006.9
20260507083012 37 5 0.0 0.9 0.01 0.83 0.01 97 1007.0
20260507081508 37 5 0.0 1.7 0.01 0.83 0.01 97 1007.1
20260507080005 37 5 0.0 1.7 0.01 0.83 0.01 96 1006.9
20260507074504 37 5 0.9 1.7 0.01 0.83 0.01 96 1006.8
20260507073102 37 5 0.9 1.7 0.00 0.82 0.00 96 1006.7
20260507071555 37 5 0.0 1.7 0.00 0.82 0.00 96 1006.4
20260507070052 38 330 0.0 0.9 0.00 0.82 0.82 97 1006.3
20260507064552 38 330 0.0 1.7 0.00 0.82 0.82 97 1006.5
20260507063028 38 330 0.0 0.9 0.00 0.82 0.82 96 1006.6
20260507061521 38 360 0.0 2.6 0.00 0.82 0.82 97 1006.5
20260507060021 38 315 2.6 6.1 0.00 0.94 0.82 96 1006.6
20260507054520 38 300 0.9 3.5 0.00 0.94 0.82 96 1006.9
20260507053017 38 315 1.7 4.3 0.00 0.94 0.82 97 1006.8
20260507051517 38 321 2.6 7.0 0.00 0.94 0.82 97 1006.8
20260507050011 38 247 0.9 7.0 0.00 0.98 0.82 97 1006.8
20260507044510 38 323 2.6 5.2 0.00 0.98 0.82 97 1006.7
20260507043009 38 328 1.7 5.2 0.00 0.98 0.82 97 1006.8
20260507041522 38 289 2.6 7.0 0.00 0.98 0.82 97 1006.9
20260507040005 39 355 0.9 5.2 0.00 0.98 0.82 97 1006.6
20260507034504 39 52 2.6 5.2 0.00 0.98 0.82 97 1006.5
20260507033003 39 333 1.7 3.5 0.00 0.98 0.82 97 1006.8
20260507031502 39 351 0.9 3.5 0.00 0.98 0.82 97 1006.6
20260507030100 39 292 2.6 7.0 0.01 0.98 0.82 97 1006.7
20260507024616 39 317 2.6 4.3 0.01 0.98 0.82 97 1006.9
20260507023055 39 293 0.9 7.0 0.03 0.98 0.82 97 1007.0
20260507021554 39 339 2.6 5.2 0.05 0.98 0.82 97 1006.9
20260507020107 40 342 2.6 5.2 0.04 0.97 0.81 97 1006.8
20260507014601 40 308 3.5 8.7 0.04 0.97 0.81 97 1007.0
20260507013050 40 321 1.7 7.0 0.03 0.95 0.79 97 1006.9
20260507011545 40 300 1.7 5.2 0.02 0.93 0.77 97 1006.8
20260507010045 40 313 2.6 5.2 0.02 0.93 0.77 97 1006.5
20260507004544 40 296 1.7 4.3 0.03 0.93 0.77 97 1006.2
20260507003043 40 292 0.9 4.3 0.04 0.92 0.76 97 1006.0
20260507001544 40 309 2.6 7.0 0.04 0.91 0.75 97 1005.9
20260507000039 40 309 1.7 7.0 0.05 0.91 0.75 97 1005.1
20260506234539 40 299 1.7 4.3 0.04 0.90 0.74 97 1005.1
20260506233135 40 325 2.6 5.2 0.04 0.89 0.73 96 1005.0
20260506231544 41 5 2.6 7.8 0.02 0.87 0.71 97 1004.9
20260506230041 41 313 2.6 7.8 0.01 0.86 0.70 96 1004.7
20260506224529 41 286 5.2 10.4 0.01 0.86 0.70 96 1004.7
20260506223042 41 335 2.6 7.0 0.00 0.85 0.69 97 1004.5
20260506221525 41 350 1.7 7.0 0.00 0.85 0.69 96 1004.5
20260506220026 41 326 2.6 7.8 0.00 0.85 0.69 96 1004.4
20260506214522 42 347 1.7 3.5 0.00 0.85 0.69 96 1004.3
20260506213021 41 360 1.7 4.3 0.01 0.85 0.69 96 1004.3
20260506211519 42 22 0.0 3.5 0.03 0.85 0.69 97 1004.3
20260506210022 42 299 0.9 5.2 0.04 0.90 0.69 96 1004.3
20260506204517 42 308 1.7 7.0 0.05 0.90 0.69 96 1004.2
20260506203024 42 306 1.7 7.0 0.05 0.89 0.68 96 1004.3
20260506201529 42 9 2.6 6.1 0.05 0.87 0.66 96 1004.0
20260506200014 42 294 0.9 2.6 0.04 0.89 0.65 96 1003.9
20260506194510 41 259 3.5 7.8 0.03 0.88 0.64 96 1004.0
20260506193009 42 307 3.5 9.6 0.02 0.87 0.63 96 1004.1
20260506191507 42 360 2.6 6.1 0.00 0.85 0.61 96 1004.1
20260506190006 43 328 2.6 7.8 0.02 0.85 0.61 96 1003.9
20260506184534 44 319 0.0 3.5 0.10 0.85 0.61 96 1003.8
20260506183042 44 328 0.9 4.3 0.13 0.85 0.61 96 1004.0
20260506181530 43 296 0.9 4.3 0.15 0.84 0.60 96 1004.1
20260506180030 43 264 1.7 8.7 0.27 0.83 0.59 96 1004.6
20260506174528 43 284 3.5 6.1 0.23 0.75 0.51 96 1004.4
20260506173028 43 21 0.0 7.0 0.24 0.72 0.48 96 1004.5
20260506171529 43 5 0.9 8.7 0.24 0.69 0.45 96 1004.5
20260506170023 44 308 3.5 9.6 0.12 0.55 0.31 95 1004.2
20260506164518 45 38 0.0 5.2 0.09 0.51 0.27 96 1004.1
20260506163015 46 312 0.9 3.5 0.06 0.47 0.23 96 1004.2